Location: Wavehorne
(51.0500°N, 0.8333°E)
Time: 15:14:34
(UTC+00:00)

USA 229 DEB - Pass Details

Date: 20 June 2021
Orbit: 955 x 1257 km, 63.4° (Epoch: 25 July)

Event Time Altitude Azimuth Distance (km) Brightness Sun altitude
Exits shadow 00:22:26 22° 190° (S) 2,010 4.5 -15.3°
Maximum altitude 00:26:28 53° 123° (ESE) 1,241 3.9 -15.3°
Drops below altitude 10° 00:33:05 10° 49° (NE) 2,922 6.7 -15.1°
Sets 00:35:54 0° 45° (NE) 3,929 7.6 -15.1°
